Location: Godiavel Galaoual
(15.2485°N, 12.6604°W)
Time: 18:47:16
(UTC+00:00)

A-11 Canister half - All Passes

Search period start: 18 June 2021 00:00
Search period end: 28 June 2021 00:00
Orbit: 1527 x 1681 km, 47.3° (Epoch: 18 June)

Date Brightness Start Highest point End Pass type
(mag) Time Alt. Az. Time Alt. Az. Time Alt. Az.
18 Jun - 00:12:05 10° W 00:18:54 22° NW 00:25:39 10° NNE visible
18 Jun - 06:37:33 10° NNW 06:46:00 36° NE 06:54:37 10° ESE daylight
18 Jun - 08:41:52 10° NW 08:51:04 55° SW 09:00:34 10° SSE daylight
18 Jun - 19:41:18 10° SSE 19:46:55 17° SE 19:52:25 10° E visible
18 Jun - 21:41:48 10° SW 21:51:32 87° SE 22:00:58 10° NE visible
18 Jun - 23:50:03 10° W 23:57:09 23° NW 00:04:10 10° NNE visible
19 Jun - 06:16:00 10° NNW 06:24:17 34° NE 06:32:43 10° ESE daylight
19 Jun - 08:20:10 10° NW 08:29:25 59° SW 08:38:59 10° SSE daylight
19 Jun - 19:20:12 10° SSE 19:25:16 15° SE 19:30:14 10° E daylight
19 Jun - 21:20:08 10° SW 21:29:53 82° SE 21:39:18 10° NE visible
19 Jun - 23:28:03 10° W 23:35:24 25° NW 23:42:40 10° NNE visible
20 Jun - 05:54:28 10° NNW 06:02:34 32° NE 06:10:48 10° E visible
20 Jun - 07:58:28 10° NW 08:07:46 63° SW 08:17:23 10° SSE daylight
20 Jun - 18:59:11 10° SSE 19:03:35 14° SE 19:07:56 10° E daylight
20 Jun - 20:58:29 10° SW 21:08:14 77° SE 21:17:39 10° NE visible
20 Jun - 23:06:04 10° W 23:13:40 26° NW 23:21:09 10° NNE visible
21 Jun - 05:32:56 10° NNW 05:40:51 30° NE 05:48:53 10° E visible
21 Jun - 07:36:47 10° NW 07:46:07 67° SW 07:55:46 10° SSE daylight
21 Jun - 09:48:50 10° WSW 09:50:47 11° SW 09:52:45 10° SW daylight
21 Jun - 18:38:21 10° SSE 18:41:55 12° SE 18:45:27 10° ESE daylight
21 Jun - 20:36:50 10° SSW 20:46:34 73° SE 20:56:00 10° NE visible
21 Jun - 22:44:06 10° W 22:51:56 28° NW 22:59:39 10° NNE visible
22 Jun - 05:11:25 10° NNW 05:19:07 28° NE 05:26:56 10° E visible
22 Jun - 07:15:06 10° NW 07:24:28 72° SW 07:34:08 10° SSE daylight
22 Jun - 09:25:51 10° WSW 09:29:07 12° SW 09:32:25 10° SSW daylight
22 Jun - 18:17:49 10° SE 18:20:15 11° SE 18:22:38 10° ESE daylight
22 Jun - 20:15:12 10° SSW 20:24:55 68° SE 20:34:18 10° NE visible
22 Jun - 22:22:10 10° W 22:30:13 30° NW 22:38:08 10° NNE visible
23 Jun - 04:49:54 10° NNW 04:57:24 26° NE 05:04:59 10° E visible
23 Jun - 06:53:26 10° NW 07:02:49 77° SW 07:12:30 10° SE daylight
23 Jun - 09:03:19 10° W 09:07:26 13° SW 09:11:37 10° SSW daylight
23 Jun - 19:53:36 10° SSW 20:03:16 64° SE 20:12:37 10° NE visible
23 Jun - 22:00:13 10° W 22:08:29 32° NW 22:16:36 10° NNE visible
24 Jun - 04:28:24 10° NNW 04:35:40 25° NE 04:43:01 10° E visible
24 Jun - 06:31:47 10° NW 06:41:10 81° SW 06:50:51 10° SE daylight
24 Jun - 08:40:59 10° W 08:45:46 15° SW 08:50:39 10° SSW daylight
24 Jun - 19:31:58 10° SSW 19:41:37 60° SE 19:50:56 10° NE visible
24 Jun - 21:38:18 10° WSW 21:46:47 34° NW 21:55:05 10° NNE visible
25 Jun - 04:06:54 10° NNW 04:13:56 23° NE 04:21:00 10° E visible
25 Jun - 06:10:08 10° NW 06:19:31 86° SW 06:29:11 10° SE daylight
25 Jun - 08:18:47 10° W 08:24:06 16° SW 08:29:34 10° SSW daylight
25 Jun - 19:10:23 10° SSW 19:19:58 56° SE 19:29:13 10° NE daylight
25 Jun - 21:16:24 10° WSW 21:25:04 36° NW 21:33:32 10° NNE visible
26 Jun - 03:45:25 10° NNW 03:52:11 22° NE 03:59:00 10° E visible
26 Jun - 05:48:29 10° NW 05:57:52 89° NE 06:07:31 10° SE visible
26 Jun - 07:56:38 10° W 08:02:27 18° SW 08:08:24 10° SSW daylight
26 Jun - 18:48:48 10° SSW 18:58:19 52° SE 19:07:30 10° NE daylight
26 Jun - 20:54:31 10° WSW 21:03:21 38° NW 21:11:59 10° NNE visible
27 Jun - 03:23:55 10° N 03:30:26 20° NE 03:36:57 10° E visible
27 Jun - 05:26:51 10° NW 05:36:13 84° NE 05:45:50 10° SE visible
27 Jun - 07:34:34 10° W 07:40:48 20° SW 07:47:10 10° S daylight
27 Jun - 18:27:14 10° SSW 18:36:39 49° SE 18:45:46 10° ENE daylight
27 Jun - 20:32:38 10° WSW 20:41:39 41° NW 20:50:26 10° NNE visible
